Key West NAF, FL

8:24 PM EST on February 20, 2018 (GMT -0500)
Key West Naval Air Station

Weather History for KNQX - April, 2014

Change the Weather History Date:

Tuesday, April 29, 2014

  Actual Average Record
Temperature  
Mean Temperature 82 °F -  
Max Temperature 88 °F 82 °F 89 °F (1991)
Min Temperature 78 °F 72 °F 61 °F (1992)
Cooling Degree Days 18    
Growing Degree Days 32 (Base 50)    
Moisture  
Dew Point 73 °F    
Average Humidity 76    
Maximum Humidity 87    
Minimum Humidity 63    
Precipitation  
Precipitation 0.00 in - - ()
Sea Level Pressure  
Sea Level Pressure 29.93 in    
Wind  
Wind Speed 14 mph (SE)    
Max Wind Speed 20 mph    
Max Gust Speed 24 mph    
Visibility 10 miles    
Events      
Averages and records for this station are not official NWS values.
T = Trace of Precipitation, MM = Missing Value Source: NWS Daily Summary

Daily Weather History Graph

Daily Weather History Graph

Search for Another Location

Airport or City:

Trip Planner

Search our weather history database for the weather conditions in past years. The results will help you decide how hot, cold, wet, or windy it might be!

Date:

Astronomy

Apr. 29, 2014 Rise Set
Actual Time 6:53 AM EDT 7:55 PM EDT
Civil Twilight 6:29 AM EDT 8:19 PM EDT
Nautical Twilight 6:01 AM EDT 8:47 PM EDT
Astronomical Twilight 5:32 AM EDT 9:16 PM EDT
Moon 7:09 AM EDT (4/29) 8:32 PM EDT (4/29)
Length of Visible Light 13h 49m
Length of Day
13h 02m
New Moon, 0% of the Moon is Illuminated
Apr 29
New Moon
May 6
First Quarter
May 14
Full
May 21
Last Quarter
May 28
New

Hourly Weather History & Observations

Time (EDT) Temp. Heat Index Dew Point Humidity Pressure Visibility Wind Dir Wind Speed Gust Speed Precip Events Conditions
12:53 AM 79.0 °F - 73.0 °F 82% 29.92 in 10.0 mi SE 17.3 mph 24.2 mph N/A   Partly Cloudy
1:53 AM 78.1 °F - 73.0 °F 84% 29.89 in 10.0 mi SSE 8.1 mph - N/A   Clear
2:53 AM 79.0 °F - 72.0 °F 79% 29.89 in 10.0 mi SSE 11.5 mph - N/A   Clear
3:53 AM 79.0 °F - 69.1 °F 72% 29.87 in 10.0 mi SSE 13.8 mph - N/A   Clear
4:53 AM 79.0 °F - 70.0 °F 74% 29.88 in 10.0 mi SE 13.8 mph - N/A   Clear
5:53 AM 79.0 °F - 72.0 °F 79% 29.88 in 10.0 mi SE 13.8 mph - N/A   Partly Cloudy
6:53 AM 78.1 °F - 72.0 °F 81% 29.90 in 10.0 mi SSE 8.1 mph - N/A   Partly Cloudy
7:53 AM 80.1 °F 83.8 °F 72.0 °F 76% 29.92 in 10.0 mi SSE 9.2 mph - N/A   Partly Cloudy
8:53 AM 82.0 °F 86.7 °F 72.0 °F 71% 29.93 in 10.0 mi SE 8.1 mph - N/A   Partly Cloudy
9:53 AM 82.9 °F 88.8 °F 73.0 °F 72% 29.94 in 10.0 mi SE 12.7 mph - N/A   Clear
10:53 AM 84.9 °F 91.4 °F 73.0 °F 67% 29.96 in 10.0 mi ESE 17.3 mph - N/A   Partly Cloudy
11:53 AM 86.0 °F 93.8 °F 73.9 °F 67% 29.96 in 10.0 mi SE 17.3 mph - N/A   Scattered Clouds
12:53 PM 86.0 °F 93.8 °F 73.9 °F 67% 29.95 in 10.0 mi SE 19.6 mph - N/A   Partly Cloudy
1:53 PM 86.0 °F 93.0 °F 73.0 °F 65% 29.95 in 10.0 mi SE 18.4 mph - N/A   Partly Cloudy
2:53 PM 87.1 °F 94.5 °F 73.0 °F 63% 29.93 in 10.0 mi SSE 15.0 mph - N/A   Partly Cloudy
3:53 PM 86.0 °F 95.1 °F 75.0 °F 70% 29.91 in 10.0 mi SE 17.3 mph - N/A   Partly Cloudy
4:53 PM 84.9 °F 93.3 °F 75.0 °F 72% 29.89 in 10.0 mi SE 16.1 mph - N/A   Partly Cloudy
5:53 PM 84.0 °F 91.2 °F 73.9 °F 72% 29.89 in 10.0 mi SE 13.8 mph - N/A   Partly Cloudy
6:53 PM 82.0 °F 87.9 °F 73.9 °F 76% 29.88 in 10.0 mi ESE 13.8 mph - N/A   Partly Cloudy
7:53 PM 81.0 °F 86.7 °F 75.0 °F 82% 29.91 in 10.0 mi ESE 12.7 mph - N/A   Partly Cloudy
8:53 PM 80.1 °F 85.4 °F 75.9 °F 87% 29.95 in 10.0 mi ESE 13.8 mph - N/A   Partly Cloudy
9:53 PM 80.1 °F 85.4 °F 75.9 °F 87% 29.96 in 10.0 mi ESE 12.7 mph - N/A   Partly Cloudy
10:53 PM 81.0 °F 87.3 °F 75.9 °F 85% 29.99 in 10.0 mi ESE 15.0 mph - N/A   Partly Cloudy
11:25 PM 81.0 °F 87.3 °F 75.9 °F 85% 29.99 in 10.0 mi ESE 15.0 mph - N/A   Scattered Clouds
11:53 PM 81.0 °F 86.2 °F 73.9 °F 79% 29.99 in 10.0 mi SE 13.8 mph - N/A   Clear